Regional Weather Roundup
Issued by NWS New Orleans/Baton Rouge, LA

Home | Current Version | Previous Version | Graphics & Text | Print | Product List | Glossary On
Versions: 1 2 3 4 5 6 7 8 9 10 11 12 13 14 15 16 17 18 19 20 21 22 23 24 25 26 27 28 29 30 31 32 33 34 35 36 37 38 39 40 41 42 43 44 45 46 47 48 49 50
178
ASUS44 KLIX 181610
RWRLIX
NEW ORLEANS REGIONAL WEATHER ROUNDUP
NATIONAL WEATHER SERVICE NEW ORLEANS LA
1000 AM CST THU DEC 18 2014

NOTE: "FAIR" INDICATES FEW OR NO CLOUDS BELOW 12,000 FEET WITH NO
      SIGNIFICANT WEATHER AND/OR OBSTRUCTIONS TO VISIBILITY.
      SKY/WX - SKY CONDITION AND SIGNIFICANT WEATHER.
      TMP - AIR TEMPERATURE.     DP    - DEWPOINT TEMPERATURE.
      RH  - RELATIVE HUMIDITY.   PRES  - PRESSURE.
      HI  - HEAT INDEX.          WCI   - WIND CHILL INDEX.

*  THESE STATIONS ARE NOT NWS OR FAA STATIONS AND ARE NOT UNDER
   NWS QUALITY CONTROL.

LAZ038-040-048-061>063-065>067-069-181700-
SOUTHEAST LOUISIANA

CITY           SKY/WX    TMP DP  RH WIND       PRES   REMARKS
N.O. AUDUBON     N/A     64  53  67 MISG        N/A
N.O. INTL ARPT PTSUNNY   64  50  60 SE9       30.19R
N.O. LAKEFRONT MOSUNNY   62  49  62 SE15      30.20S
N.O. DOWNTOWN*   N/A     61  48  63 SE3       30.20S
SLIDELL        MOSUNNY   58  44  60 SE9       30.20S
BATON ROUGE    CLOUDY    59  47  64 E8        30.17S
BOOTHVILLE     NOT AVBL
BELLE CHASSE   PTSUNNY   63  51  65 E12       30.20
BOGALUSA*        N/A     56  42  60 E5        30.23R
GALLIANO*      MOSUNNY   66  54  65 MISG      30.20R
NEW ROADS*     CLOUDY    55  46  72 E8        30.17S
GONZALES*      CLOUDY    60  52  73 SE6       30.17F
HAMMOND*       NOT AVBL
HOUMA*         SUNNY     64  55  72 E8        30.18R
PORT FOURCHON* SUNNY     64  57  77 E13G20    30.21S

$$

MSZ070-080>082-181700-
SOUTHERN MISSISSIPPI

CITY           SKY/WX    TMP DP  RH WIND       PRES   REMARKS
MCCOMB         CLOUDY    54  42  64 E7        30.19S
GULFPORT       SUNNY     56  41  57 E8        30.21S
BILOXI         SUNNY     56  42  60 E7        30.22S
PASCAGOULA     SUNNY     56  40  55 E7        30.22F
STENNIS ARPT*  SUNNY     55  37  50 E7        30.22S

$$

COASTAL OBSERVATIONS
LAKE AND NEARSHORE STATIONS

STATION/POSITION TIME  TEMP    WIND        PRES    WAVE
                       AIR SEA DIR/SP/G            HT/PER
                 (UTC) (F)     (DEG/KT/KT) (MB)    (FT/S)
PASCAGOULA       1600   54      70/  9/ 11 1023.0
WAVELAND YACHT   1600   54     120/  8/ 10 1022.1
GRAND ISLE       1600   63 61  100/  9/ 13 1022.6
SOUTHWEST PASS   1600   62                 1022.7
NEW CANAL        1600   61 57   80/  2/  7 1022.7
SHELL BEACH      1600   59 58   80/ 10/ 13 1022.9

OFFSHORE STATIONS

STATION/POSITION TIME  TEMP    WIND        PRES    WAVE
                       AIR SEA DIR/SP/G            HT/PER
                 (UTC) (F)     (DEG/KT/KT) (MB)    (FT/S)
64 S DAUPHIN ISL 1600   65 74   50/  6/  8 1022.7    1

$$




USA.gov is the U.S. government's official web portal to all federal, state and local government web resources and services.